When you browse on this site, cookies collect data to enhance your experience and personalize the content and advertising you see.
Visit our Privacy Policy to learn more. By continuing to use the site, you agree to this use of cookies and data.
  • In Spain
  • List of Countries
  • For 7 days
  • Water Temperature
  • Satellite Maps
  • Weather Map
  • Weather Widgets
  • user-avatar
    Login

    Hourly Weather Delhi

    Today, 17 February, Sunday

    Time Temperature Precipitation Wind Pressure Humidity
    00:00 +15°C° 0 mm 2 mps 741 mmHg 85%
    01:00 +15°C° 0 mm 2 mps 741 mmHg 85%
    02:00 +14°C° 0 mm 2 mps 740 mmHg 85%
    03:00 +14°C° 0 mm 2 mps 740 mmHg 86%
    04:00 +14°C° 0 mm 2 mps 740 mmHg 86%
    05:00 +14°C° 0 mm 2 mps 739 mmHg 87%
    06:00 +13°C° 0 mm 3 mps 740 mmHg 84%
    07:00 +13°C° 0 mm 3 mps 740 mmHg 81%
    08:00 +14°C° 0 mm 3 mps 741 mmHg 78%
    09:00 +17°C° 0 mm 4 mps 741 mmHg 70%
    10:00 +19°C° 0 mm 4 mps 741 mmHg 62%
    11:00 +21°C° 0 mm 4 mps 741 mmHg 54%
    12:00 +22°C° 0 mm 4 mps 741 mmHg 50%
    13:00 +22°C° 0 mm 3 mps 740 mmHg 46%
    14:00 +24°C° 0 mm 3 mps 739 mmHg 42%
    15:00 +24°C° 0 mm 3 mps 739 mmHg 45%
    16:00 +22°C° 0 mm 3 mps 738 mmHg 47%
    17:00 +21°C° 0 mm 3 mps 738 mmHg 50%
    18:00 +20°C° 0 mm 2 mps 738 mmHg 52%
    19:00 +19°C° 0 mm 2 mps 738 mmHg 55%
    20:00 +19°C° 0 mm 1 mps 738 mmHg 57%
    21:00 +19°C° 0 mm 1 mps 738 mmHg 58%
    22:00 +19°C° 0 mm 1 mps 738 mmHg 59%
    23:00 +18°C° 0 mm 1 mps 739 mmHg 60%

    Tomorrow, 18 February, Monday

    Time Temperature Precipitation Wind Pressure Humidity
    00:00 +18°C° 0 mm 1 mps 738 mmHg 62%
    01:00 +16°C° 0 mm 1 mps 738 mmHg 65%
    02:00 +16°C° 0 mm 1 mps 738 mmHg 68%
    03:00 +15°C° 0 mm 0 mps 738 mmHg 69%
    04:00 +14°C° 0 mm 0 mps 738 mmHg 70%
    05:00 +14°C° 0 mm 0 mps 738 mmHg 71%
    06:00 +15°C° 0 mm 0 mps 738 mmHg 68%
    07:00 +16°C° 0 mm 0 mps 738 mmHg 64%
    08:00 +18°C° 0 mm 1 mps 739 mmHg 61%
    09:00 +20°C° 0 mm 1 mps 739 mmHg 56%
    10:00 +20°C° 0 mm 2 mps 739 mmHg 50%
    11:00 +21°C° 0 mm 2 mps 739 mmHg 45%
    12:00 +23°C° 0 mm 2 mps 739 mmHg 43%
    13:00 +23°C° 0 mm 2 mps 738 mmHg 41%
    14:00 +23°C° 0 mm 2 mps 737 mmHg 40%
    15:00 +23°C° 0 mm 2 mps 737 mmHg 41%
    16:00 +23°C° 0 mm 2 mps 736 mmHg 42%
    17:00 +21°C° 0 mm 2 mps 736 mmHg 43%
    18:00 +21°C° 0 mm 3 mps 736 mmHg 44%
    19:00 +21°C° 0 mm 3 mps 737 mmHg 46%
    20:00 +20°C° 0 mm 4 mps 737 mmHg 47%
    21:00 +20°C° 0.2 mm 4 mps 737 mmHg 50%
    22:00 +19°C° 0.2 mm 4 mps 737 mmHg 53%
    23:00 +19°C° 0.2 mm 3 mps 737 mmHg 56%

    Day after tomorrow, 19 February, Tuesday

    Time Temperature Precipitation Wind Pressure Humidity
    00:00 +18°C° 0.3 mm 4 mps 737 mmHg 58%
    01:00 +18°C° 0.3 mm 4 mps 737 mmHg 60%
    02:00 +17°C° 0.3 mm 4 mps 737 mmHg 63%
    03:00 +17°C° 0 mm 4 mps 737 mmHg 64%
    04:00 +17°C° 0 mm 4 mps 737 mmHg 65%
    05:00 +15°C° 0 mm 5 mps 737 mmHg 66%
    06:00 +17°C° 0 mm 4 mps 738 mmHg 66%
    07:00 +17°C° 0 mm 4 mps 739 mmHg 66%
    08:00 +17°C° 0 mm 4 mps 740 mmHg 65%
    09:00 +19°C° 0.1 mm 4 mps 740 mmHg 62%
    10:00 +20°C° 0.1 mm 4 mps 741 mmHg 58%
    11:00 +22°C° 0.1 mm 4 mps 741 mmHg 54%
    12:00 +23°C° 0.1 mm 4 mps 741 mmHg 53%
    13:00 +25°C° 0.1 mm 4 mps 740 mmHg 51%
    14:00 +26°C° 0.1 mm 4 mps 740 mmHg 49%
    15:00 +25°C° 0 mm 4 mps 740 mmHg 52%
    16:00 +25°C° 0 mm 4 mps 740 mmHg 55%
    17:00 +23°C° 0 mm 4 mps 739 mmHg 58%
    18:00 +23°C° 0 mm 4 mps 740 mmHg 59%
    19:00 +22°C° 0 mm 4 mps 740 mmHg 60%
    20:00 +21°C° 0 mm 4 mps 740 mmHg 61%
    21:00 +21°C° 0 mm 4 mps 741 mmHg 60%
    22:00 +21°C° 0 mm 3 mps 741 mmHg 59%
    23:00 +21°C° 0 mm 3 mps 741 mmHg 59%

    20 February, Wednesday

    Time Temperature Precipitation Wind Pressure Humidity
    00:00 +20°C° 0.2 mm 3 mps 741 mmHg 60%
    01:00 +20°C° 0.2 mm 3 mps 741 mmHg 62%
    02:00 +19°C° 0.2 mm 2 mps 741 mmHg 63%
    03:00 +19°C° 0 mm 2 mps 740 mmHg 63%
    04:00 +18°C° 0 mm 2 mps 740 mmHg 64%
    05:00 +18°C° 0 mm 2 mps 740 mmHg 64%
    06:00 +18°C° 0.2 mm 2 mps 741 mmHg 63%
    07:00 +19°C° 0.2 mm 1 mps 742 mmHg 63%
    08:00 +19°C° 0.2 mm 1 mps 743 mmHg 63%
    09:00 +20°C° 0 mm 1 mps 743 mmHg 60%
    10:00 +20°C° 0 mm 2 mps 744 mmHg 56%
    11:00 +21°C° 0 mm 2 mps 744 mmHg 53%
    12:00 +21°C° 0.3 mm 2 mps 744 mmHg 58%
    13:00 +21°C° 0.3 mm 2 mps 743 mmHg 63%
    14:00 +20°C° 0.3 mm 2 mps 743 mmHg 68%
    15:00 +20°C° 0.1 mm 2 mps 742 mmHg 69%
    16:00 +20°C° 0.1 mm 2 mps 742 mmHg 70%
    17:00 +20°C° 0.1 mm 2 mps 742 mmHg 71%
    18:00 +19°C° 0 mm 2 mps 742 mmHg 73%
    19:00 +19°C° 0 mm 3 mps 743 mmHg 75%
    20:00 +18°C° 0 mm 3 mps 743 mmHg 76%
    21:00 +18°C° 0 mm 3 mps 743 mmHg 75%
    22:00 +18°C° 0 mm 3 mps 743 mmHg 75%
    23:00 +17°C° 0 mm 3 mps 743 mmHg 74%

    21 February, Thursday

    Time Temperature Precipitation Wind Pressure Humidity
    00:00 +18°C° 0 mm 3 mps 743 mmHg 72%
    01:00 +18°C° 0 mm 3 mps 742 mmHg 70%
    02:00 +18°C° 0 mm 3 mps 742 mmHg 68%
    03:00 +18°C° 0 mm 3 mps 742 mmHg 67%
    04:00 +18°C° 0 mm 3 mps 742 mmHg 66%
    05:00 +18°C° 0 mm 3 mps 742 mmHg 65%
    06:00 +18°C° 0 mm 3 mps 743 mmHg 64%
    07:00 +18°C° 0 mm 3 mps 743 mmHg 63%
    08:00 +19°C° 0 mm 3 mps 744 mmHg 62%
    09:00 +20°C° 0 mm 3 mps 744 mmHg 56%
    10:00 +23°C° 0 mm 2 mps 744 mmHg 50%
    11:00 +25°C° 0 mm 2 mps 745 mmHg 44%
    12:00 +26°C° 0 mm 3 mps 744 mmHg 43%
    13:00 +27°C° 0 mm 4 mps 743 mmHg 42%
    14:00 +28°C° 0 mm 4 mps 742 mmHg 41%
    15:00 +27°C° 0 mm 4 mps 742 mmHg 44%
    16:00 +27°C° 0 mm 3 mps 741 mmHg 46%
    17:00 +26°C° 0 mm 2 mps 741 mmHg 49%
    18:00 +25°C° 0 mm 2 mps 741 mmHg 50%
    19:00 +25°C° 0 mm 3 mps 742 mmHg 50%
    20:00 +24°C° 0 mm 3 mps 742 mmHg 51%
    21:00 +22°C° 0 mm 3 mps 742 mmHg 53%
    22:00 +23°C° 0 mm 2 mps 742 mmHg 55%
    23:00 +22°C° 0 mm 1 mps 742 mmHg 58%

    22 February, Friday

    Time Temperature Precipitation Wind Pressure Humidity
    00:00 +21°C° 0.2 mm 1 mps 741 mmHg 61%
    01:00 +21°C° 0.2 mm 1 mps 741 mmHg 65%
    02:00 +20°C° 0.2 mm 1 mps 741 mmHg 68%
    03:00 +19°C° 0.3 mm 1 mps 741 mmHg 70%
    04:00 +19°C° 0.3 mm 1 mps 740 mmHg 73%
    05:00 +17°C° 0.3 mm 0 mps 740 mmHg 75%
    06:00 +17°C° 0.1 mm 0 mps 741 mmHg 72%
    07:00 +18°C° 0.1 mm 0 mps 741 mmHg 70%
    08:00 +18°C° 0.1 mm 0 mps 742 mmHg 67%
    09:00 +20°C° 0 mm 0 mps 742 mmHg 60%
    10:00 +24°C° 0 mm 1 mps 743 mmHg 52%
    11:00 +26°C° 0 mm 1 mps 743 mmHg 45%
    12:00 +27°C° 0 mm 1 mps 742 mmHg 42%
    13:00 +28°C° 0 mm 1 mps 741 mmHg 40%
    14:00 +27°C° 0 mm 0 mps 741 mmHg 37%
    15:00 +28°C° 0 mm 1 mps 740 mmHg 40%
    16:00 +28°C° 0 mm 1 mps 740 mmHg 43%
    17:00 +27°C° 0 mm 1 mps 740 mmHg 47%
    18:00 +26°C° 0 mm 1 mps 740 mmHg 52%
    19:00 +24°C° 0 mm 2 mps 740 mmHg 57%
    20:00 +23°C° 0 mm 2 mps 741 mmHg 63%
    21:00 +21°C° 0 mm 2 mps 741 mmHg 65%
    22:00 +22°C° 0 mm 1 mps 740 mmHg 67%
    23:00 +21°C° 0 mm 1 mps 740 mmHg 69%
    Show more